World > North America > United States > Texas

Hourly Crabbs Prairie, TX Regional Weather

Feedback E-mail the Weather

Quick WX

Crabbs Prairie, TX Weather Maps

°F °C°F °C
Crabbs Prairie Weather Map
UTC Time: 7/2/2022, 11:02
Your Time:

Crabbs Prairie, TX Regional Weather

Expires:202207021200;;546624
ASUS44 KSJT 021102
RWRSJT
WEST CENTRAL TEXAS REGIONAL WEATHER ROUNDUP
NATIONAL WEATHER SERVICE SAN ANGELO TX
600 AM CDT SAT JUL 02 2022

NOTE: "FAIR" INDICATES FEW OR NO CLOUDS BELOW 12,000 FEET WITH NO
SIGNIFICANT WEATHER AND/OR OBSTRUCTIONS TO VISIBILITY.


TXZ163-177-195>197-199-213-226-237-021200-
SOUTHEAST TEXAS
  
CITY           SKY/WX    TMP DP  RH WIND       PRES   REMARKS
COLLEGE STN    MOCLDY    79  75  87 S6        29.93S                  
CALDWELL       NOT AVBL                                               
CROCKETT       CLOUDY    75  75 100 S3        29.93S FOG              
BRENHAM        CLEAR     78  76  95 S5        29.94S FOG              
HUNTSVILLE     CLEAR     79  76  90 S8        29.94R                  
CONROE         CLOUDY    76  76 100 CALM      29.95S FOG              
HOUSTON BUSH   PTCLDY    78  76  93 S3        29.93S                  
HOUSTON HOBBY  MOCLDY    79  76  90 S6        29.93S                  
PERLAND        CLEAR     78  76  93 CALM      29.95R                  
WHARTON        MOSUNNY   75  74  99 CALM      29.95R FOG              
$$


SKY/WX - Weather  TMP - Temperature  DP - Dew Point  RH - Humidity
WIND - Wind Direction/Speed PRES - Barometric Pressure VSB - Visibility
WCI - Wind Chill Index E13G22 Wind - East Wind 13 mph/Gusts of 22 mph

Trending Headlines

Crabbs Prairie Radar Loop



Crabbs Prairie Quick Facts


National Two Day Weather Forecast


E-mail the Crabbs Prairie Weather Forecast

Voice your opinion or tell us about page issues...